This is the latest recevied weather packets stored in our database for station/object N9PBY-2. If no packets are shown the sender has not sent any weather packets the latest 10 day(s).
| Time | Temp. | Humidity | Pressure | Rain* | Wind** | Luminosity | Snow |
|---|---|---|---|---|---|---|---|
| 1778157607 | 3.89° C | 54% | 1014.3 hPa | 0 mm | - | - | - |
| 1778157007 | 3.33° C | 56% | 1014.1 hPa | 0 mm | - | - | - |
| 1778156406 | 2.78° C | 59% | 1014 hPa | 0 mm | - | - | - |
| 1778155807 | 2.22° C | 61% | 1014 hPa | 0 mm | - | - | - |
| 1778155207 | 1.11° C | 62% | 1014.2 hPa | 0 mm | - | - | - |
| 1778154606 | 0.56° C | 63% | 1014.2 hPa | 0 mm | - | - | - |
| 1778154006 | 0° C | 64% | 1014.2 hPa | 0 mm | - | - | - |
| 1778153406 | -0.56° C | 64% | 1013.9 hPa | 0 mm | - | - | - |
| 1778152806 | -1.11° C | 63% | 1013.8 hPa | 0 mm | - | - | - |
| 1778152206 | -1.11° C | 63% | 1013.8 hPa | 0 mm | - | - | - |
| 1778151606 | -1.11° C | 63% | 1013.6 hPa | 0 mm | - | - | - |
| 1778151006 | -1.11° C | 62% | 1013.6 hPa | 0 mm | - | - | - |
| 1778150406 | -1.11° C | 62% | 1013.7 hPa | 0 mm | - | - | - |
| 1778149806 | -0.56° C | 61% | 1013.6 hPa | 0 mm | - | - | - |
| 1778149206 | -0.56° C | 60% | 1013.5 hPa | 0 mm | - | - | - |
| 1778148606 | 0° C | 59% | 1013.4 hPa | 0 mm | - | - | - |
| 1778148006 | 0° C | 59% | 1013.4 hPa | 0 mm | - | - | - |
| 1778147406 | 0° C | 58% | 1013.3 hPa | 0 mm | - | - | - |
| 1778146807 | 0.56° C | 58% | 1013.5 hPa | 0 mm | - | - | - |
| 1778146207 | 0.56° C | 58% | 1013.4 hPa | 0 mm | - | - | - |
| 1778145606 | 0.56° C | 58% | 1013.5 hPa | 0 mm | - | - | - |
| 1778145006 | 1.11° C | 58% | 1013.5 hPa | 0 mm | - | - | - |
| 1778144406 | 1.11° C | 59% | 1013.6 hPa | 0 mm | - | - | - |
| 1778143806 | 1.11° C | 59% | 1013.6 hPa | 0 mm | - | - | - |
| 1778143206 | 0.56° C | 58% | 1013.6 hPa | 0 mm | - | - | - |
* Rain latest hour (hover to see other rain measurements)
** Current wind speed in m/s (hover to see current wind gust speed)